Meteopurmerend
purmerend
Purmerend - Baaienwijk



My webcam  My webcam


waarschuwing voor Onweer Meer informatie blitzortung!


Regen radar Meer informatie rain snow radar


Bezoek onze andere website:

CandyAppleRed WebdesignWebdesign Purmerend Candy Apple Red

MeteopurmerendBlog

Template documentation
and downloads



Onweer van: 26-07-2021 13:00 tot: 21:00 waarschuwing voor: Onweer niveau: Geel info button
Enkele onweersbuien, lokaal met hagel en veel neerslag in korte tijd.Kans op blikseminslag, hagel en veel neerslag in korte tijd.Verkeer en buitenactiviteiten kunnen hinder ondervinden.Mijd open water en open gebied, schuil niet onder bomen.Volg weerberichten en waarschuwingen.

15 daagse weersverwachting Glasgow (GB)

  • Overzicht
  • Per uur
  • 15 dagen
  • Extra
  • Vergelijk
  • Kaarten
  • Dagkaart
  • Meer »
  • Info
  • Statistieken
  • Directe link
    Temp 6h Neerslag Wind  
 05:14     21:34    Daglengte: 16:20 Vandaag
19:00
22°
 
4
 05:16     21:32    Daglengte: 16:16 Morgen
01:00
16°
 
2
07:00
14°
 
1
13:00
21°
 
2
19:00
18°
19.5 mm
4
warningclass
 05:18     21:31    Daglengte: 16:13 Woensdag 28 Jul
01:00
15°
36.2 mm
4
07:00
14°
39.6 mm
5
13:00
16°
43.9 mm
5
19:00
16°
28.3 mm
5
 05:19     21:29    Daglengte: 16:10 Donderdag 29 Jul
01:00
13°
15.3 mm
3
07:00
14°
40.7 mm
4
Locatie info
Region: Scotland
Latitude: 55.8578°N
Longitude: -4.2425°E
40 masl
Postcode: G1 1
Temp/Neerslag /Baro Onweer/Dauwpunt
    Temp Baro 1h Neerslag Dauwpunt Wind UV Bewolking  
 05:14     21:34    Daglengte: 16:20 Vandaag
15:00
23°
1007.0 hPa   13.3°
5
Windvlaag: 6.2 m/s
15%
16:00
24°
1006.6 hPa   13.5°
4
Windvlaag: 5.3 m/s
28%
17:00
24°
1006.5 hPa   13.9°
5
Windvlaag: 5.1 m/s
17%
18:00
23°
1006.5 hPa   14.2°
5
Windvlaag: 5.3 m/s
67%
19:00
22°
1006.4 hPa   14.3°
4
Windvlaag: 5.3 m/s
45%
20:00
21°
1006.5 hPa   14.3°
4
Windvlaag: 5 m/s
28%
21:00
20°
1006.7 hPa   14.6°
4
Windvlaag: 4.6 m/s
35%
22:00
19°
1007.1 hPa   15.0°
3
Windvlaag: 4.6 m/s
22%
23:00
17°
1007.2 hPa   14.6°
3
Windvlaag: 3.9 m/s
26%
 05:16     21:32    Daglengte: 16:16 Morgen
00:00
16°
1007.3 hPa   14.3°
2
Windvlaag: 3.1 m/s
72%
01:00
16°
1007.3 hPa   14.2°
2
Windvlaag: 2.7 m/s
53%
02:00
15°
1007.2 hPa   14.1°
2
Windvlaag: 2.3 m/s
68%
03:00
15°
1006.9 hPa   14.1°
2
Windvlaag: 2.2 m/s
59%
04:00
14°
1006.7 hPa   13.8°
2
Windvlaag: 1.9 m/s
66%
05:00
14°
1006.5 hPa   13.7°
1
Windvlaag: 1.9 m/s
53%
06:00
14°
1006.5 hPa   13.4°
2
Windvlaag: 1.7 m/s
61%
07:00
14°
1006.8 hPa   13.3°
1
Windvlaag: 1.6 m/s
72%
08:00
15°
1006.8 hPa   13.2°
1
Windvlaag: 1.7 m/s
79%
09:00
17°
1006.8 hPa   13.3°
1
Windvlaag: 1.9 m/s
70%
10:00
18°
1006.6 hPa   13.5°
1
Windvlaag: 1.8 m/s
61%
11:00
20°
1006.3 hPa
15%
14.0°
2
Windvlaag: 1.1 m/s
61%
12:00
21°
1005.9 hPa
27%
14.6°
2
Windvlaag: 1.4 m/s
79%
13:00
21°
1005.7 hPa
82%
16.1°
2
Windvlaag: 0.5 m/s
76%
14:00
21°
1005.4 hPa
82%
16.3°
3
Windvlaag: -2.6 m/s
72%
15:00
21°
1005.0 hPa 1.2 mm
81%
16.7°
3
Windvlaag: -4 m/s
85% warningclass
16:00
20°
1004.9 hPa 2.2 mm
82%
16.5°
3
Windvlaag: -2.3 m/s
83% warningclass
17:00
20°
1004.7 hPa 4.5 mm
82%
15.3°
3
Windvlaag: -1.5 m/s
77% warningclass
18:00
19°
1004.7 hPa 5.6 mm
82%
15.4°
3
Windvlaag: -1.2 m/s
82% warningclass
19:00
18°
1004.4 hPa 5.9 mm
82%
13.8°
4
Windvlaag: -1.4 m/s
84% warningclass
20:00
17°
1004.6 hPa 5.9 mm
82%
13.2°
4
Windvlaag: -1.6 m/s
85%
21:00
17°
1004.3 hPa 6.0 mm
82%
13.3°
4
Windvlaag: -1.6 m/s
84%
22:00
16°
1004.5 hPa 6.2 mm
82%
13.4°
4
Windvlaag: -1.8 m/s
86%
23:00
16°
1004.1 hPa 6.3 mm
82%
13.3°
4
Windvlaag: -2.1 m/s
86%
 05:18     21:31    Daglengte: 16:13 Woensdag 28 Jul
00:00
16°
1003.9 hPa 5.8 mm
82%
13.1°
4
Windvlaag: -1.4 m/s
86%
01:00
15°
1003.3 hPa 6.1 mm
82%
12.5°
4
Windvlaag: 0.4 m/s
86%
02:00
15°
1002.9 hPa 6.5 mm
82%
12.6°
4
Windvlaag: 0.2 m/s
86%
03:00
15°
1002.4 hPa 6.5 mm
82%
12.3°
3
Windvlaag: 0 m/s
86% warningclass
04:00
15°
1002.1 hPa 7.5 mm
82%
11.4°
4
Windvlaag: 1.4 m/s
86% warningclass
05:00
14°
1001.9 hPa 6.8 mm
82%
10.3°
5
Windvlaag: 1.9 m/s
86%
06:00
14°
1001.6 hPa 6.3 mm
82%
10.5°
5
Windvlaag: 1.3 m/s
84%
07:00
14°
1001.6 hPa 6.0 mm
82%
10.8°
5
Windvlaag: 0.8 m/s
78%
08:00
14°
1001.5 hPa 6.0 mm
82%
10.1°
5
Windvlaag: 1.7 m/s
85%
09:00
14°
1001.6 hPa
81%
9.3°
5
Windvlaag: 2.4 m/s
75%
10:00
15°
1000.7 hPa 9.7 mm
96%
10.1°
4
Windvlaag: 2.8 m/s
98%
11:00
15°
1000.5 hPa 9.5 mm
92%
9.5°
5
Windvlaag: 2.4 m/s
96%
12:00
15°
1000.4 hPa 9.5 mm
40%
9.1°
4
Windvlaag: 1.9 m/s
92%
13:00
16°
1000.2 hPa 9.4 mm
35%
9.1°
5
Windvlaag: 1.1 m/s
91%
14:00
17°
1000.0 hPa
34%
9.4°
5
Windvlaag: 0.8 m/s
99%
15:00
17°
999.7 hPa 9.5 mm
34%
8.8°
5
Windvlaag: 0.7 m/s
99%
16:00
17°
999.6 hPa 9.5 mm
35%
8.0°
5
Windvlaag: 2 m/s
94%
17:00
17°
999.4 hPa 9.4 mm
35%
7.7°
5
Windvlaag: 1.8 m/s
93%
18:00
16°
999.4 hPa
37%
8.0°
5
Windvlaag: 1.7 m/s
96%
19:00
16°
999.2 hPa
37%
9.7°
5
Windvlaag: 2.5 m/s
98%
20:00
15°
999.3 hPa
43%
9.1°
4
Windvlaag: 3.1 m/s
94%
21:00
15°
999.4 hPa
89%
8.3°
4
Windvlaag: 3.5 m/s
83%
22:00
14°
999.5 hPa
80%
8.8°
4
Windvlaag: 3.3 m/s
83%
23:00
14°
999.3 hPa
83%
9.6°
4
Windvlaag: 2.9 m/s
88%
 05:19     21:29    Daglengte: 16:10 Donderdag 29 Jul
00:00
13°
999.3 hPa 9.4 mm
90%
10.3°
4
Windvlaag: 3 m/s
99%
01:00
13°
999.1 hPa 5.9 mm
99%
11.0°
3
Windvlaag: 2.6 m/s
99%
02:00
13°
998.9 hPa 6.3 mm
100%
11.6°
3
Windvlaag: 2.3 m/s
99%
03:00
13°
998.9 hPa 6.5 mm
100%
12.2°
3
Windvlaag: 2.2 m/s
95%
04:00
13°
998.9 hPa 6.1 mm
100%
12.5°
3
Windvlaag: 2 m/s
97%
05:00
13°
999.0 hPa 10.9 mm
100%
12.4°
3
Windvlaag: 1.8 m/s
98%
06:00
13°
999.3 hPa 10.9 mm
100%
11.8°
3
Windvlaag: 1.8 m/s
97%
07:00
14°
999.6 hPa
100%
11.4°
4
Windvlaag: 1.8 m/s
97%
08:00
14°
1000.7 hPa 10.9 mm
95%
11.0°
3
Windvlaag: 10.2 m/s
99%
09:00
14°
1001.3 hPa 11.0 mm
92%
10.3°
2
Windvlaag: 10.3 m/s
94%
10:00
15°
1001.6 hPa 11.0 mm
90%
10.2°
3
Windvlaag: 9.7 m/s
89%
11:00
16°
1002.0 hPa
75%
10.5°
3
Windvlaag: 9.8 m/s
100%
12:00
17°
1002.3 hPa
22%
10.5°
3
Windvlaag: 9.6 m/s
94%
13:00
17°
1002.5 hPa
22%
10.4°
3
Windvlaag: 9.2 m/s
96%
Temp/Neerslag /Baro Onweer/Dauwpunt
    Temp Baro Neerslag Dauwpunt Wind Bewolking  
 05:14     21:34    Daglengte: 16:20 Vandaag
16:00
24°
1006.6 hPa   13.5°
4
28%
19:00
22°
1006.4 hPa   14.3°
4
45%
22:00
19°
1007.1 hPa   15.0°
3
22%
 05:16     21:32    Daglengte: 16:16 Morgen
01:00
16°
1007.3 hPa   14.2°
2
53%
04:00
14°
1006.7 hPa   13.8°
2
66%
07:00
14°
1006.8 hPa   13.3°
1
72%
10:00
18°
1006.6 hPa   13.5°
1
61%
13:00
21°
1005.7 hPa   16.1°
2
76%
16:00
20°
1004.9 hPa 3.5 mm 16.5°
3
83% warningclass
19:00
18°
1004.4 hPa 16.1 mm 13.8°
4
84% warningclass
22:00
16°
1004.5 hPa 18.0 mm 13.4°
4
86%
 05:18     21:31    Daglengte: 16:13 Woensdag 28 Jul
01:00
15°
1003.3 hPa 18.2 mm 12.5°
4
86%
04:00
15°
1002.1 hPa 20.4 mm 11.4°
4
86% warningclass
07:00
14°
1001.6 hPa 19.1 mm 10.8°
5
78%
10:00
15°
1000.7 hPa 15.6 mm 10.1°
4
98%
13:00
16°
1000.2 hPa 28.3 mm 9.1°
5
91%
16:00
17°
999.6 hPa 18.9 mm 8.0°
5
94%
19:00
16°
999.2 hPa 9.4 mm 9.7°
5
98%
22:00
14°
999.5 hPa   8.8°
4
83%
 05:19     21:29    Daglengte: 16:10 Donderdag 29 Jul
01:00
13°
999.1 hPa 15.3 mm 11.0°
3
99%
04:00
13°
998.9 hPa 18.9 mm 12.5°
3
97%
07:00
14°
999.6 hPa 21.9 mm 11.4°
4
97%
10:00
15°
1001.6 hPa 32.8 mm 10.2°
3
89%
13:00
17°
1002.5 hPa   10.4°
3
96%
16:00
21°
1003.0 hPa 16.0 mm 11.7°
4
1%
19:00
19°
1004.2 hPa 16.2 mm 11.5°
5
1%
22:00
13°
1005.7 hPa 16.2 mm 10.2°
3
0%
 05:21     21:27    Daglengte: 16:06 Vrijdag 30 Jul
01:00
12°
1006.7 hPa 16.2 mm 9.9°
2
0%
04:00
11°
1006.3 hPa 16.2 mm 9.5°
2
0%
07:00
13°
1006.5 hPa 16.2 mm 9.8°
1
0%
10:00
18°
1006.4 hPa 16.2 mm 9.2°
2
1%
13:00
21°
1005.4 hPa 16.2 mm 9.5°
1
1%
16:00
20°
1005.5 hPa 16.2 mm 10.4°
2
1%
19:00
19°
1005.2 hPa 16.2 mm 11.2°
1
1%
22:00
15°
1006.2 hPa 16.2 mm 11.2°
2
1%
 05:23     21:25    Daglengte: 16:02 Zaterdag 31 Jul
01:00
14°
1006.1 hPa 16.3 mm 12.8°
1
1%
04:00
14°
1005.4 hPa 16.4 mm 12.8°
1
1%
07:00
14°
1005.2 hPa 16.8 mm 13.0°
0
1%
10:00
13°
1005.7 hPa 17.7 mm 12.4°
2
1%
13:00
13°
1006.9 hPa 18.0 mm 11.6°
3
1%
16:00
14°
1007.4 hPa 18.1 mm 9.4°
2
1%
19:00
14°
1007.8 hPa 18.2 mm 9.1°
1
1%
22:00
12°
1008.8 hPa 18.4 mm 9.7°
1
1%
 05:25     21:23    Daglengte: 15:58 Zondag 01 Aug
01:00
12°
1009.0 hPa 18.6 mm 9.5°
1
1%
04:00
11°
1009.5 hPa 19.0 mm 9.1°
1
1%
07:00
11°
1010.5 hPa 19.3 mm 9.4°
1
1%
10:00
14°
1011.4 hPa 19.3 mm 8.4°
1
1%
13:00
16°
1011.5 hPa 19.4 mm 5.6°
1
1%
16:00
17°
1011.6 hPa 19.4 mm 6.9°
2
1%
19:00
17°
1011.8 hPa 19.4 mm 8.4°
2
1%
22:00
12°
1013.1 hPa 19.4 mm 7.1°
3
0%
 05:27     21:21    Daglengte: 15:54 Maandag 02 Aug
01:00
Voelt als: 8.1°
1013.5 hPa 19.4 mm 6.9°
2
0%
04:00
Voelt als: 7.2°
1013.6 hPa 19.4 mm 6.9°
2
0%
07:00
10°
Voelt als: 9.0°
1013.6 hPa 19.4 mm 7.4°
2
1%
10:00
14°
1013.6 hPa 19.4 mm 7.4°
3
1%
13:00
17°
1012.9 hPa 38.7 mm 5.9°
4
1%
19:00
16°
1011.8 hPa 38.8 mm 11.2°
4
1%
 05:29     21:19    Daglengte: 15:50 Dinsdag 03 Aug
01:00
12°
1010.9 hPa 38.8 mm 10.6°
2
1%
07:00
13°
1006.9 hPa 39.2 mm 11.8°
2
1%
13:00
15°
1003.9 hPa 43.4 mm 14.5°
3
1%
19:00
15°
1002.0 hPa 51.0 mm 14.7°
2
1%
 05:31     21:17    Daglengte: 15:46 Woensdag 04 Aug
01:00
13°
1000.7 hPa 59.0 mm 12.6°
2
1%
07:00
13°
1000.6 hPa 64.2 mm 12.1°
3
1%
13:00
18°
1000.9 hPa 65.5 mm 13.1°
4
1%
19:00
18°
1001.3 hPa 66.5 mm 12.2°
4
1%
 05:32     21:14    Daglengte: 15:42 Donderdag 05 Aug
01:00
12°
1003.1 hPa 66.8 mm 10.8°
0
0%
07:00
12°
1002.8 hPa 67.3 mm 10.9°
2
1%
13:00
17°
1006.3 hPa 1.2 mm 12.4°
1
79%
19:00
16°
1005.7 hPa 2.0 mm 12.7°
1
74%
 05:34     21:12    Daglengte: 15:38 Vrijdag 06 Aug
01:00
11°
1006.5 hPa 0.7 mm 10.4°
0
74%
07:00
12°
1006.4 hPa 0.6 mm 10.8°
1
83%
13:00
16°
1007.0 hPa 1.2 mm 12.3°
1
85%
19:00
16°
1007.0 hPa 2.1 mm 12.5°
2
78%
 05:36     21:10    Daglengte: 15:34 Zaterdag 07 Aug
01:00
11°
1007.7 hPa 0.7 mm 10.0°
1
74%
07:00
11°
1007.8 hPa 0.5 mm 10.4°
1
79%
13:00
17°
1008.3 hPa 0.7 mm 11.9°
2
70%
19:00
16°
1008.1 hPa 1.4 mm 12.2°
2
66%
 05:38     21:08    Daglengte: 15:30 Zondag 08 Aug
01:00
11°
1008.3 hPa 0.8 mm 10.1°
1
68%
07:00
11°
1007.6 hPa 1.0 mm 10.3°
1
74%
13:00
16°
1008.3 hPa 0.8 mm 11.9°
2
78%
19:00
15°
1008.2 hPa 1.7 mm 12.2°
1
72%
 05:40     21:06    Daglengte: 15:26 Maandag 09 Aug
01:00
11°
1009.1 hPa 0.6 mm 10.0°
1
67%
07:00
11°
1009.6 hPa 0.7 mm 10.3°
1
76%
13:00
17°
1011.3 hPa 0.7 mm 11.9°
3
72%
19:00
16°
1011.7 hPa 1.3 mm 12.0°
2
64%
 05:42     21:04    Daglengte: 15:22 Dinsdag 10 Aug
01:00
11°
1012.6 hPa 0.9 mm 10.2°
1
65%
07:00
11°
1012.3 hPa 0.7 mm 10.6°
1
68%
13:00
17°
1012.9 hPa 1.2 mm 12.2°
2
70%
  CAPE Lifted Index Hail Supercell Tornado SRH 3km CL BTM PRES CL TOP PRES Swiss DWD icon SMHI TS
 05:14     21:34    Daglengte: 16:20 Vandaag
15:00 297 J/kg -1.8 K 0 % 0 % 0 % 0 m²/s² 0 0 2.94 2
16:00 343 J/kg -1.9 K 0 % 0 % 0 % 0 m²/s² 0 0 2.36 3
17:00 579 J/kg -2.9 K 0 % 0 % 0 % 0 m²/s² 0 0 0.85 2
18:00 720 J/kg -3.3 K 0 % 0 % 0 % 0 m²/s² 0 0 0.15 3
19:00 680 J/kg -3.2 K 0 % 0 % 0 % 0 m²/s² 0 0 0.01 3
20:00 639 J/kg -3.1 K 0 % 0 % 0 % 0 m²/s² 0 0 0.11 3
21:00 445 J/kg -2.6 K 0 % 0 % 0 % 0 m²/s² 0 0 0.67 3
22:00 127 J/kg -2.0 K 0 % 0 % 0 % 0 m²/s² 0 0 1.18 3
23:00 0 J/kg -1.6 K 0 % 0 % 0 % 0 m²/s² 0 0 1.58 2
 05:16     21:32    Daglengte: 16:16 Morgen
00:00 0 J/kg -1.7 K 0 % 0 % 0 % 0 m²/s² 0 0 1.3 3
01:00 0 J/kg -1.3 K 0 % 0 % 0 % 0 m²/s² 0 0 1.7 3
02:00 0 J/kg -1.3 K 0 % 0 % 0 % 0 m²/s² 0 0 1.46 3
03:00 0 J/kg -1.0 K 0 % 0 % 0 % 0 m²/s² 0 0 1.76 3
04:00 0 J/kg -1.1 K 0 % 0 % 0 % 0 m²/s² 0 0 1.57 3
05:00 1 J/kg -1.6 K 0 % 0 % 0 % 0 m²/s² 0 0 0.92 3
06:00 2 J/kg -1.8 K 0 % 0 % 0 % 0 m²/s² 0 0 0.66 3
07:00 1 J/kg -2.0 K 0 % 0 % 0 % 0 m²/s² 0 0 0.25 3
08:00 0 J/kg -1.7 K 0 % 0 % 0 % 0 m²/s² 0 0 0.46 3
09:00 29 J/kg -1.7 K 0 % 0 % 0 % 0 m²/s² 0 0 0.28 3
10:00 251 J/kg -2.0 K 0 % 0 % 0 % 0 m²/s² 0 0 0.04 3
11:00 500 J/kg -2.5 K 0 % 0 % 0 % 0 m²/s² 0 0 -0.73 3
12:00 598 J/kg -2.8 K 0 % 0 % 0 % 0 m²/s² 0 0 -1.24 3
13:00 664 J/kg -2.8 K 0 % 0 % 0 % 0 m²/s² 0 0 -1.24 3
14:00 832 J/kg -3.3 K 0 % 0 % 0 % 0 m²/s² 0 0 -1.8 3
15:00 851 J/kg -3.3 K 0 % 0 % 0 % 0 m²/s² 0 0 -2.79 3
16:00 763 J/kg -2.9 K 0 % 0 % 0 % 0 m²/s² 0 0 -2.78 95
17:00 697 J/kg -2.2 K 0 % 0 % 0 % 0 m²/s² 0 0 -1.81 95
18:00 648 J/kg -2.5 K 0 % 0 % 0 % 0 m²/s² 0 0 -2.08 95
19:00 181 J/kg -0.6 K 0 % 0 % 0 % 0 m²/s² 0 0 0.48 95
20:00 227 J/kg -0.7 K 0 % 0 % 0 % 0 m²/s² 0 0 0.41 80
21:00 126 J/kg -0.5 K 0 % 0 % 0 % 0 m²/s² 0 0 0.88 80
22:00 62 J/kg -0.5 K 0 % 0 % 0 % 0 m²/s² 0 0 0.67 80
23:00 61 J/kg -0.4 K 0 % 0 % 0 % 0 m²/s² 0 0 0.62 80
 05:18     21:31    Daglengte: 16:13 Woensdag 28 Jul
00:00 27 J/kg -0.1 K 0 % 0 % 0 % 0 m²/s² 0 0 0.83 80
01:00 0 J/kg 0.3 K 0 % 0 % 0 % 0 m²/s² 0 0 1.17 80
02:00 0 J/kg 1.8 K 0 % 0 % 0 % 0 m²/s² 0 0 2.4 80
03:00 0 J/kg 2.2 K 0 % 0 % 0 % 0 m²/s² 0 0 2.41 95
04:00 0 J/kg 2.9 K 0 % 0 % 0 % 0 m²/s² 0 0 3.02 95
05:00 1 J/kg 3.2 K 0 % 0 % 0 % 0 m²/s² 0 0 3.8 80
06:00 6 J/kg 4.0 K 0 % 0 % 0 % 0 m²/s² 0 0 5.77 80
07:00 10 J/kg 3.8 K 0 % 0 % 0 % 0 m²/s² 0 0 6.08 80
08:00 11 J/kg 3.4 K 0 % 0 % 0 % 0 m²/s² 0 0 5.68 80
09:00 20 J/kg 2.7 K 0 % 0 % 0 % 0 m²/s² 0 0 4.56 3
10:00 27 J/kg 2.1 K 0 % 0 % 0 % 0 m²/s² 0 0 3.78 3
11:00 55 J/kg 1.5 K 0 % 0 % 0 % 0 m²/s² 0 0 3.09 3
12:00 76 J/kg 0.9 K 0 % 0 % 0 % 0 m²/s² 0 0 2.76 3
13:00 125 J/kg 0.4 K 0 % 0 % 0 % 0 m²/s² 0 0 2.41 3
14:00 174 J/kg 0.1 K 0 % 0 % 0 % 0 m²/s² 0 0 1.69 3
15:00 165 J/kg -0.3 K 0 % 0 % 0 % 0 m²/s² 0 0 1.32 3
16:00 187 J/kg -0.3 K 0 % 0 % 0 % 0 m²/s² 0 0 0.96 3
17:00 175 J/kg -0.3 K 0 % 0 % 0 % 0 m²/s² 0 0 0.81 3
18:00 162 J/kg -0.4 K 0 % 0 % 0 % 0 m²/s² 0 0 0.65 3
19:00 164 J/kg -0.6 K 0 % 0 % 0 % 0 m²/s² 0 0 0.54 3
20:00 110 J/kg 0.1 K 0 % 0 % 0 % 0 m²/s² 0 0 1.15 3
21:00 14 J/kg 1.2 K 0 % 0 % 0 % 0 m²/s² 0 0 2.4 3
22:00 0 J/kg 2.0 K 0 % 0 % 0 % 0 m²/s² 0 0 3.26 3
23:00 0 J/kg 2.9 K 0 % 0 % 0 % 0 m²/s² 0 0 3.59 3
 05:19     21:29    Daglengte: 16:10 Donderdag 29 Jul
00:00 0 J/kg 2.5 K 0 % 0 % 0 % 0 m²/s² 0 0 3.1 61
01:00 0 J/kg 1.3 K 0 % 0 % 0 % 0 m²/s² 0 0 2.56 61
02:00 0 J/kg 1.3 K 0 % 0 % 0 % 0 m²/s² 0 0 1.63 61
03:00 6 J/kg 1.6 K 0 % 0 % 0 % 0 m²/s² 0 0 1.81 61
04:00 12 J/kg 1.1 K 0 % 0 % 0 % 0 m²/s² 0 0 1.52 61
05:00 7 J/kg 1.1 K 0 % 0 % 0 % 0 m²/s² 0 0 1.28 61
06:00 1 J/kg 1.4 K 0 % 0 % 0 % 0 m²/s² 0 0 1.64 61
07:00 3 J/kg 2.3 K 0 % 0 % 0 % 0 m²/s² 0 0 2.63 61
08:00 4 J/kg 3.1 K 0 % 0 % 0 % 0 m²/s² 0 0 3.4 61
09:00 5 J/kg 3.7 K 0 % 0 % 0 % 0 m²/s² 0 0 4 61
10:00 11 J/kg 3.5 K 0 % 0 % 0 % 0 m²/s² 0 0 3.92 61
11:00 12 J/kg 3.1 K 0 % 0 % 0 % 0 m²/s² 0 0 3.4 3
12:00 15 J/kg 3.3 K 0 % 0 % 0 % 0 m²/s² 0 0 3.99 3
13:00 23 J/kg 2.7 K 0 % 0 % 0 % 0 m²/s² 0 0 3.93 3
Temp Baro Wind Neerslag
  EWN Forecast EWN WRFDA DWD ICON FMI HIRLAM MET Norway GFS
 05:14     21:34    Daglengte: 16:20 Vandaag
16:00 23.8° 1006.6 hPa 4.3 m/s 0.0 mm 23.5° 1005.9 hPa 3.1 m/s 0.0 mm 23.8° 1006.9 hPa 3.2 m/s -2.0 mm 24.3° 1006.6 hPa 5.4 m/s 0.0 mm 22.8° 1006.7 hPa 4.0 m/s
19:00 22.0° 1006.4 hPa 4.3 m/s 0.0 mm 21.9° 1005.5 hPa 4.3 m/s 0.0 mm 21.3° 1006.3 hPa 3.5 m/s 0.0 mm 22.4° 1006.5 hPa 4.6 m/s 0.0 mm 19.7° 1006.6 hPa 3.3 m/s
22:00 18.5° 1007.1 hPa 3.3 m/s 0.0 mm 17.9° 1005.7 hPa 3.7 m/s 0.0 mm 17.8° 1007.4 hPa 2.4 m/s 0.0 mm 18.8° 1007.3 hPa 3.3 m/s 0.0 mm 15.5° 1006.9 hPa 2.4 m/s
 05:16     21:32    Daglengte: 16:16 Morgen
01:00 15.7° 1007.3 hPa 2.3 m/s 0.0 mm 14.5° 1005.6 hPa 3.2 m/s 0.0 mm 15.0° 1007.5 hPa 0.9 m/s 0.0 mm 15.8° 1007.5 hPa 2.6 m/s 0.0 mm 13.5° 1007.3 hPa 1.7 m/s
04:00 14.4° 1006.7 hPa 1.6 m/s 0.0 mm 12.9° 1005.4 hPa 2.6 m/s 0.0 mm 13.8° 1007.0 hPa 0.5 m/s 0.0 mm 14.7° 1006.6 hPa 2.4 m/s 0.0 mm 12.5° 1006.8 hPa 1.1 m/s
07:00 14.4° 1006.8 hPa 1.0 m/s 0.0 mm 13.5° 1005.8 hPa 1.3 m/s 0.0 mm 13.9° 1007.1 hPa 0.3 m/s 0.0 mm 15.5° 1006.5 hPa 2.8 m/s 0.0 mm 14.0° 1006.9 hPa 1.0 m/s
10:00 18.1° 1006.6 hPa 0.9 m/s 0.0 mm 18.6° 1005.2 hPa 0.3 m/s 0.0 mm 17.7° 1007.0 hPa 0.8 m/s 0.0 mm 19.7° 1006.4 hPa 1.6 m/s 0.0 mm 17.1° 1006.5 hPa 0.2 m/s
13:00 21.5° 1005.7 hPa 2.1 m/s 0.0 mm 20.3° 1004.7 hPa 2.3 m/s 0.7 mm 21.1° 1005.9 hPa 1.7 m/s 0.0 mm 21.5° 1005.8 hPa 3.1 m/s 0.0 mm 19.0° 1006.0 hPa 0.9 m/s
16:00 20.1° 1004.9 hPa 3.0 m/s 3.5 mm 18.4° 1003.8 hPa 1.4 m/s 8.1 mm 19.2° 1005.1 hPa 2.2 m/s 1.7 mm 20.4° 1005.3 hPa 4.6 m/s 0.0 mm 20.0° 1004.7 hPa 1.3 m/s
19:00 18.4° 1004.4 hPa 4.1 m/s 16.1 mm 17.8° 1003.2 hPa 2.0 m/s 67.8 mm 17.4° 1004.5 hPa 0.6 m/s 4.9 mm 20.0° 1005.1 hPa 5.5 m/s 0.0 mm 18.3° 1004.1 hPa 2.0 m/s
22:00 16.1° 1004.5 hPa 4.0 m/s 18.0 mm 15.4° 1003.4 hPa 3.0 m/s 77.8 mm 16.2° 1004.3 hPa 1.3 m/s 3.7 mm 16.1° 1006.2 hPa 5.4 m/s 0.0 mm 14.7° 1004.2 hPa 1.9 m/s
 05:18     21:31    Daglengte: 16:13 Woensdag 28 Jul
01:00 15.2° 1003.3 hPa 4.1 m/s 18.2 mm 13.0° 1002.7 hPa 5.6 m/s 80.1 mm 15.6° 1002.8 hPa 0.8 m/s 2.2 mm 14.9° 1006.2 hPa 5.7 m/s 0.0 mm 14.0° 1003.2 hPa 2.0 m/s
04:00 14.6° 1002.1 hPa 4.1 m/s 20.4 mm 12.5° 1002.0 hPa 3.6 m/s 82.5 mm 15.1° 1001.5 hPa 1.2 m/s 3.6 mm 14.4° 1006.1 hPa 6.4 m/s 0.0 mm 13.1° 1001.6 hPa 2.0 m/s
07:00 14.0° 1001.6 hPa 4.6 m/s 19.1 mm 12.8° 1001.4 hPa 3.5 m/s 83.1 mm 14.6° 1000.7 hPa 3.0 m/s 3.2 mm 14.1° 1006.7 hPa 5.8 m/s 0.0 mm 12.8° 1001.1 hPa 2.5 m/s
10:00 14.6° 1000.7 hPa 4.2 m/s 15.6 mm 15.4° 1000.6 hPa 2.9 m/s 83.2 mm 14.8° 1001.0 hPa 4.4 m/s 0.3 mm 14.0° 1000.4 hPa 2.8 m/s
13:00 15.8° 1000.2 hPa 4.6 m/s 28.3 mm 17.6° 999.9 hPa 3.3 m/s 83.2 mm 15.9° 1000.6 hPa 4.6 m/s 0.0 mm 17.2° 999.6 hPa 3.6 m/s
16:00 16.8° 999.6 hPa 5.0 m/s 18.9 mm 18.9° 998.7 hPa 3.4 m/s 83.3 mm 16.9° 1000.4 hPa 5.1 m/s 0.0 mm 18.2° 998.5 hPa 4.4 m/s
19:00 15.8° 999.2 hPa 4.7 m/s 9.4 mm 17.2° 998.4 hPa 5.3 m/s 83.8 mm 15.8° 1000.2 hPa 4.5 m/s 0.0 mm 16.8° 998.0 hPa 4.2 m/s
22:00 13.9° 999.5 hPa 3.8 m/s 0.0 mm 14.9° 998.8 hPa 3.7 m/s 84.0 mm 13.9° 1000.6 hPa 4.0 m/s 0.0 mm 13.6° 998.1 hPa 3.9 m/s
 05:19     21:29    Daglengte: 16:10 Donderdag 29 Jul
01:00 13.2° 999.1 hPa 3.4 m/s 15.3 mm 13.2° 998.2 hPa 3.3 m/s 84.0 mm 13.2° 1000.3 hPa 3.6 m/s 0.7 mm 11.9° 998.3 hPa 3.1 m/s
04:00 13.3° 998.9 hPa 3.2 m/s 18.9 mm 13.6° 997.9 hPa 3.4 m/s 86.0 mm 13.3° 1000.0 hPa 2.5 m/s 2.5 mm 12.0° 998.3 hPa 3.1 m/s
07:00 13.6° 999.6 hPa 4.2 m/s 21.9 mm 13.4° 999.2 hPa 5.0 m/s 96.2 mm 13.8° 1000.5 hPa 2.0 m/s 0.9 mm 12.1° 999.7 hPa 2.3 m/s
10:00 15.2° 1001.6 hPa 2.9 m/s 32.8 mm 15.7° 1001.0 hPa 6.6 m/s 96.7 mm 15.1° 1001.8 hPa 1.9 m/s 0.9 mm 15.2° 1001.5 hPa 2.6 m/s
13:00 17.0° 1002.5 hPa 3.2 m/s 0.0 mm 17.5° 1002.5 hPa 6.7 m/s 96.8 mm 16.8° 1002.4 hPa 2.3 m/s 0.0 mm 20.0° 1002.2 hPa 3.0 m/s
16:00 20.7° 1003.0 hPa 4.4 m/s 16.0 mm 20.7° 1003.0 hPa 4.4 m/s 16.0 mm
19:00 18.6° 1004.2 hPa 5.3 m/s 16.2 mm 18.6° 1004.2 hPa 5.3 m/s 16.2 mm
22:00 13.4° 1005.7 hPa 3.3 m/s 16.2 mm 13.4° 1005.7 hPa 3.3 m/s 16.2 mm
 05:21     21:27    Daglengte: 16:06 Vrijdag 30 Jul
01:00 11.8° 1006.7 hPa 2.5 m/s 16.2 mm 11.8° 1006.7 hPa 2.5 m/s 16.2 mm
04:00 10.9° 1006.3 hPa 2.0 m/s 16.2 mm 10.9° 1006.3 hPa 2.0 m/s 16.2 mm
07:00 13.0° 1006.5 hPa 1.4 m/s 16.2 mm 13.0° 1006.5 hPa 1.4 m/s 16.2 mm
10:00 18.4° 1006.4 hPa 2.2 m/s 16.2 mm 18.4° 1006.4 hPa 2.2 m/s 16.2 mm
13:00 21.3° 1005.4 hPa 1.1 m/s 16.2 mm 21.3° 1005.4 hPa 1.1 m/s 16.2 mm
16:00 19.6° 1005.5 hPa 2.0 m/s 16.2 mm 19.6° 1005.6 hPa 2.0 m/s 16.2 mm
19:00 18.6° 1005.2 hPa 0.5 m/s 16.2 mm 18.6° 1005.2 hPa 0.5 m/s 16.2 mm
22:00 15.2° 1006.2 hPa 2.2 m/s 16.2 mm 15.1° 1006.2 hPa 2.2 m/s 16.2 mm
 05:23     21:25    Daglengte: 16:02 Zaterdag 31 Jul
01:00 14.3° 1006.1 hPa 1.4 m/s 16.3 mm 14.3° 1006.1 hPa 1.4 m/s 16.3 mm
04:00 13.8° 1005.4 hPa 0.7 m/s 16.4 mm 13.8° 1005.4 hPa 0.7 m/s 16.4 mm
07:00 13.7° 1005.2 hPa 0.5 m/s 16.8 mm 13.7° 1005.2 hPa 0.5 m/s 16.8 mm
10:00 13.2° 1005.7 hPa 1.6 m/s 17.7 mm 13.2° 1005.7 hPa 1.6 m/s 17.7 mm
13:00 13.0° 1006.9 hPa 2.7 m/s 18.0 mm 13.0° 1006.9 hPa 2.7 m/s 18.0 mm
16:00 14.1° 1007.4 hPa 2.0 m/s 18.1 mm 14.1° 1007.4 hPa 2.0 m/s 18.1 mm
19:00 14.2° 1007.8 hPa 1.2 m/s 18.2 mm 14.2° 1007.8 hPa 1.2 m/s 18.2 mm
22:00 12.3° 1008.8 hPa 0.7 m/s 18.4 mm 12.3° 1008.8 hPa 0.7 m/s 18.4 mm
 05:25     21:23    Daglengte: 15:58 Zondag 01 Aug
01:00 12.2° 1009.0 hPa 0.6 m/s 18.6 mm 12.2° 1009.0 hPa 0.6 m/s 18.6 mm
04:00 10.6° 1009.5 hPa 0.7 m/s 19.0 mm 10.6° 1009.5 hPa 0.7 m/s 19.0 mm
07:00 10.8° 1010.5 hPa 0.6 m/s 19.3 mm 10.8° 1010.5 hPa 0.6 m/s 19.3 mm
10:00 14.4° 1011.4 hPa 1.1 m/s 19.3 mm 14.4° 1011.4 hPa 1.1 m/s 19.3 mm
13:00 16.1° 1011.5 hPa 1.0 m/s 19.4 mm 16.1° 1011.5 hPa 1.0 m/s 19.4 mm
16:00 17.1° 1011.6 hPa 1.9 m/s 19.4 mm 17.1° 1011.6 hPa 1.9 m/s 19.4 mm
19:00 16.9° 1011.8 hPa 1.8 m/s 19.4 mm 16.9° 1011.8 hPa 1.8 m/s 19.4 mm
22:00 11.5° 1013.1 hPa 2.7 m/s 19.4 mm 11.5° 1013.1 hPa 2.7 m/s 19.4 mm
 05:27     21:21    Daglengte: 15:54 Maandag 02 Aug
01:00 9.3° 1013.5 hPa 2.4 m/s 19.4 mm 9.3° 1013.5 hPa 2.4 m/s 19.4 mm
04:00 8.1° 1013.6 hPa 1.8 m/s 19.4 mm 8.1° 1013.6 hPa 1.8 m/s 19.4 mm
07:00 9.7° 1013.6 hPa 1.8 m/s 19.4 mm 9.7° 1013.6 hPa 1.8 m/s 19.4 mm
10:00 14.0° 1013.6 hPa 3.0 m/s 19.4 mm 14.0° 1013.6 hPa 3.0 m/s 19.4 mm
13:00 17.4° 1012.9 hPa 3.7 m/s 19.4 mm 17.4° 1012.9 hPa 3.7 m/s 19.4 mm
19:00 16.4° 1011.8 hPa 3.8 m/s 19.4 mm 16.4° 1011.8 hPa 3.8 m/s 19.4 mm
 05:29     21:19    Daglengte: 15:50 Dinsdag 03 Aug
01:00 11.7° 1010.9 hPa 1.5 m/s 19.4 mm 11.7° 1010.9 hPa 1.5 m/s 19.4 mm
07:00 13.2° 1006.9 hPa 1.7 m/s 19.7 mm 13.2° 1006.9 hPa 1.7 m/s 19.7 mm
13:00 15.2° 1003.9 hPa 3.1 m/s 22.2 mm 15.2° 1003.9 hPa 3.1 m/s 22.2 mm
19:00 15.3° 1002.0 hPa 2.4 m/s 26.5 mm 15.4° 1002.0 hPa 2.4 m/s 26.5 mm
 05:31     21:17    Daglengte: 15:46 Woensdag 04 Aug
01:00 12.9° 1000.7 hPa 2.1 m/s 29.7 mm 12.9° 1000.7 hPa 2.1 m/s 29.7 mm
07:00 12.5° 1000.6 hPa 2.6 m/s 32.5 mm 12.5° 1000.6 hPa 2.6 m/s 32.5 mm
13:00 17.5° 1000.9 hPa 4.3 m/s 33.0 mm 17.5° 1000.9 hPa 4.3 m/s 33.0 mm
19:00 17.9° 1001.3 hPa 4.3 m/s 33.3 mm 17.9° 1001.3 hPa 4.3 m/s 33.3 mm
 05:32     21:14    Daglengte: 15:42 Donderdag 05 Aug
01:00 11.6° 1003.1 hPa 0.2 m/s 33.5 mm 11.6° 1003.1 hPa 0.2 m/s 33.5 mm
07:00 12.2° 1002.8 hPa 1.8 m/s 33.7 mm 12.2° 1002.8 hPa 1.8 m/s 33.7 mm
13:00 16.6° 1006.3 hPa 0.7 m/s 1.2 mm
19:00 15.9° 1005.7 hPa 1.0 m/s 2.0 mm
 05:34     21:12    Daglengte: 15:38 Vrijdag 06 Aug
01:00 11.4° 1006.5 hPa 0.5 m/s 0.7 mm
07:00 11.6° 1006.4 hPa 0.6 m/s 0.6 mm
13:00 16.4° 1007.0 hPa 1.3 m/s 1.2 mm
19:00 15.9° 1007.0 hPa 1.5 m/s 2.1 mm
 05:36     21:10    Daglengte: 15:34 Zaterdag 07 Aug
01:00 11.1° 1007.7 hPa 0.9 m/s 0.7 mm
07:00 11.3° 1007.8 hPa 1.0 m/s 0.5 mm
13:00 16.9° 1008.3 hPa 2.1 m/s 0.7 mm
19:00 15.8° 1008.1 hPa 1.9 m/s 1.4 mm
 05:38     21:08    Daglengte: 15:30 Zondag 08 Aug
01:00 10.9° 1008.3 hPa 1.0 m/s 0.8 mm
07:00 11.1° 1007.6 hPa 1.4 m/s 1.0 mm
13:00 16.4° 1008.3 hPa 2.1 m/s 0.8 mm
19:00 15.4° 1008.2 hPa 1.5 m/s 1.7 mm
 05:40     21:06    Daglengte: 15:26 Maandag 09 Aug
01:00 10.9° 1009.1 hPa 1.0 m/s 0.6 mm
07:00 11.1° 1009.6 hPa 1.3 m/s 0.7 mm
13:00 16.6° 1011.3 hPa 2.8 m/s 0.7 mm
19:00 15.7° 1011.7 hPa 2.3 m/s 1.3 mm
 05:42     21:04    Daglengte: 15:22 Dinsdag 10 Aug
01:00 11.1° 1012.6 hPa 0.9 m/s 0.9 mm
07:00 11.2° 1012.3 hPa 0.7 m/s 0.7 mm
13:00 16.7° 1012.9 hPa 2.0 m/s 1.2 mm
FMI Hirlam - 7.5 km EWN WRFDA - 12 km DWD ICON - 7 km GFS - 25 km Basiskaart






























































Updatetijd (Europe/Amsterdam) Resolutie Lengte Stap
FMI Hirlam 14:00, 20:00, 02:00, 08:00 7.5 km 49h 1h
EWN WRFDA 10:30, 16:30, 22:30, 04:30 12 km 73h 1h
DWD ICON 11:45, 17:45, 23:45, 05:45 7 km 75h 1h
GFS 14:15, 20:15, 02:15, 08:15 25 km 237h 3h
30+ mm
25-30 mm
20-25 mm
15-20 mm
10-15 mm
6-10 mm
4-6 mm
2-4 mm
1-2 mm
0.5-1 mm
0.2-0.5 mm
0.1-0.2 mm
30+ mm
25-30 mm
20-25 mm
15-20 mm
10-15 mm
6-10 mm
4-6 mm
2-4 mm
1-2 mm
0.5-1 mm
0.2-0.5 mm
0.1-0.2 mm
Sneeuwval
Natte sneeuw
Hagel
Vorst
30+ mm
25-30 mm
20-25 mm
15-20 mm
10-15 mm
6-10 mm
4-6 mm
2-4 mm
1-2 mm
0.5-1 mm
0.2-0.5 mm
0.1-0.2 mm
Sneeuwval
Natte sneeuw
Hagel
Vorst
Onweer
50 mm
40 mm
30 mm
26 mm
22 mm
18 mm
14 mm
10 mm
9 mm
8 mm
7 mm
6 mm
5 mm
4.5 mm
4 mm